Location: Paris
(48.6709°N, 2.3750°E)
Time: 16:25:31
(UTC+02:00)

LO-87 - Pass Details

Date: 03 July 2022
Orbit: 451 x 466 km, 97.4° (Epoch: 08 August)

Event Time Altitude Azimuth Distance (km) Brightness Sun altitude
Exits shadow 00:56:07 34° 120° (ESE) 780 ? -17.2°
Maximum altitude 00:57:10 47° 72° (ENE) 628 ? -17.2°
Drops below altitude 10° 01:00:31 10° 358° (N) 1,627 ? -17.3°
Sets 01:02:38 0° 353° (N) 2,512 ? -17.4°
